| time (UTC) | temp F | wind direction | speed knots | gust knots | rain 1hr in | rain 24hr in | rain mn in | humidity % | barometer mb |
| 20260507105626 | 56 | 16 | 0.9 | 1.7 | 0.00 | 0.00 | 0.00 | 66 | 1016.4 |
| 20260507104641 | 56 | 182 | 1.7 | 2.6 | 0.00 | 0.00 | 0.00 | 65 | 1016.2 |
| 20260507103622 | 57 | 229 | 4.3 | 7.0 | 0.00 | 0.00 | 0.00 | 66 | 1016.2 |
| 20260507102638 | 57 | 200 | 4.3 | 7.8 | 0.00 | 0.00 | 0.00 | 65 | 1016.2 |
| 20260507101633 | 57 | 213 | 1.7 | 3.5 | 0.00 | 0.00 | 0.00 | 63 | 1016.2 |
| 20260507100632 | 57 | 56 | 2.6 | 2.6 | 0.00 | 0.00 | 0.00 | 64 | 1016.1 |
| 20260507095637 | 59 | 227 | 4.3 | 5.2 | 0.00 | 0.00 | 0.00 | 60 | 1016.0 |
| 20260507094636 | 58 | 235 | 3.5 | 5.2 | 0.00 | 0.00 | 0.00 | 59 | 1015.8 |
| 20260507093624 | 59 | 216 | 0.9 | 1.7 | 0.00 | 0.00 | 0.00 | 58 | 1016.0 |
| 20260507092624 | 60 | 207 | 2.6 | 3.5 | 0.00 | 0.00 | 0.00 | 56 | 1015.9 |
| 20260507091622 | 60 | 211 | 4.3 | 6.1 | 0.00 | 0.00 | 0.00 | 57 | 1016.1 |
| 20260507090618 | 60 | 212 | 4.3 | 5.2 | 0.00 | 0.00 | 0.00 | 56 | 1016.1 |
| 20260507085634 | 60 | 246 | 4.3 | 5.2 | 0.00 | 0.00 | 0.00 | 59 | 1016.0 |
| 20260507084637 | 59 | 229 | 5.2 | 7.8 | 0.00 | 0.00 | 0.00 | 58 | 1016.2 |
| 20260507083631 | 60 | 211 | 5.2 | 7.0 | 0.00 | 0.00 | 0.00 | 60 | 1016.1 |
| 20260507082631 | 59 | 210 | 7.0 | 10.4 | 0.00 | 0.00 | 0.00 | 62 | 1016.0 |
| 20260507081629 | 59 | 234 | 5.2 | 9.6 | 0.00 | 0.00 | 0.00 | 63 | 1016.0 |
| 20260507080624 | 60 | 222 | 3.5 | 4.3 | 0.00 | 0.00 | 0.00 | 62 | 1016.0 |
| 20260507075643 | 60 | 223 | 6.1 | 11.3 | 0.00 | 0.00 | 0.00 | 62 | 1015.9 |
| 20260507074623 | 60 | 214 | 7.0 | 12.2 | 0.00 | 0.00 | 0.00 | 62 | 1015.8 |
| 20260507073620 | 61 | 212 | 7.8 | 10.4 | 0.00 | 0.00 | 0.00 | 61 | 1015.7 |
| 20260507072638 | 61 | 226 | 7.0 | 13.0 | 0.00 | 0.00 | 0.00 | 60 | 1015.8 |
| 20260507071632 | 62 | 218 | 7.0 | 10.4 | 0.00 | 0.00 | 0.00 | 59 | 1015.4 |
| 20260507070633 | 62 | 209 | 8.7 | 11.3 | 0.00 | 0.00 | 0.00 | 57 | 1015.3 |
| 20260507065708 | 62 | 211 | 7.0 | 11.3 | 0.00 | 0.00 | 0.00 | 58 | 1015.3 |
| 20260507064627 | 63 | 222 | 7.8 | 11.3 | 0.00 | 0.00 | 0.00 | 55 | 1015.3 |
| 20260507063625 | 63 | 218 | 7.8 | 11.3 | 0.00 | 0.00 | 0.00 | 54 | 1015.2 |
| 20260507062625 | 63 | 222 | 7.0 | 8.7 | 0.00 | 0.00 | 0.00 | 56 | 1015.4 |
| 20260507061621 | 64 | 214 | 7.8 | 13.9 | 0.00 | 0.00 | 0.00 | 53 | 1015.2 |
| 20260507060637 | 64 | 215 | 8.7 | 11.3 | 0.00 | 0.00 | 0.00 | 52 | 1015.3 |
| 20260507055637 | 65 | 222 | 7.8 | 11.3 | 0.00 | 0.00 | 0.00 | 51 | 1015.1 |
| 20260507054631 | 65 | 213 | 5.2 | 6.1 | 0.00 | 0.00 | 0.00 | 50 | 1015.1 |
| 20260507053653 | 66 | 207 | 3.5 | 4.3 | 0.00 | 0.00 | 0.00 | 48 | 1015.3 |
| 20260507052630 | 66 | 211 | 5.2 | 7.8 | 0.00 | 0.00 | 0.00 | 50 | 1015.2 |
| 20260507051628 | 66 | 218 | 4.3 | 6.1 | 0.00 | 0.00 | 0.00 | 50 | 1015.2 |
| 20260507050628 | 66 | 203 | 6.1 | 9.6 | 0.00 | 0.00 | 0.00 | 50 | 1015.1 |
| 20260507045620 | 67 | 227 | 4.3 | 6.1 | 0.00 | 0.00 | 0.00 | 50 | 1015.1 |
| 20260507044622 | 67 | 212 | 5.2 | 6.1 | 0.00 | 0.00 | 0.00 | 46 | 1015.1 |
| 20260507043640 | 69 | 215 | 6.1 | 10.4 | 0.00 | 0.00 | 0.00 | 42 | 1014.9 |
| 20260507042634 | 70 | 223 | 3.5 | 5.2 | 0.00 | 0.00 | 0.00 | 32 | 1015.0 |
| 20260507041635 | 70 | 232 | 4.3 | 6.1 | 0.00 | 0.00 | 0.00 | 32 | 1014.9 |
| 20260507040645 | 70 | 227 | 2.6 | 4.3 | 0.00 | 0.00 | 0.00 | 32 | 1014.8 |
| 20260507035646 | 71 | 215 | 5.2 | 7.8 | 0.00 | 0.00 | 0.00 | 32 | 1014.7 |
| 20260507034629 | 71 | 221 | 3.5 | 5.2 | 0.00 | 0.00 | 0.00 | 32 | 1014.4 |
| 20260507033625 | 72 | 232 | 2.6 | 3.5 | 0.00 | 0.00 | 0.00 | 31 | 1014.5 |
| 20260507032621 | 73 | 252 | 2.6 | 4.3 | 0.00 | 0.00 | 0.00 | 30 | 1014.6 |
| 20260507031618 | 73 | 299 | 4.3 | 7.0 | 0.00 | 0.00 | 0.00 | 30 | 1014.1 |
| 20260507030642 | 74 | 230 | 2.6 | 6.1 | 0.00 | 0.00 | 0.00 | 32 | 1014.1 |
| 20260507025634 | 75 | 228 | 3.5 | 7.0 | 0.00 | 0.00 | 0.00 | 31 | 1014.1 |
| 20260507024633 | 76 | 288 | 2.6 | 5.2 | 0.00 | 0.00 | 0.00 | 30 | 1014.0 |
| 20260507023630 | 76 | 298 | 4.3 | 6.1 | 0.00 | 0.00 | 0.00 | 29 | 1013.9 |
| 20260507022633 | 77 | 298 | 11.3 | 14.8 | 0.00 | 0.00 | 0.00 | 28 | 1013.6 |
| 20260507021630 | 77 | 310 | 5.2 | 7.0 | 0.00 | 0.00 | 0.00 | 30 | 1013.7 |
| 20260507020624 | 76 | 313 | 3.5 | 5.2 | 0.00 | 0.00 | 0.00 | 33 | 1013.7 |
| 20260507015622 | 77 | 337 | 3.5 | 6.1 | 0.00 | 0.00 | 0.00 | 32 | 1013.6 |
| 20260507014617 | 78 | 315 | 6.1 | 7.8 | 0.00 | 0.00 | 0.00 | 34 | 1013.3 |
| 20260507013641 | 79 | 296 | 8.7 | 13.0 | 0.00 | 0.00 | 0.00 | 30 | 1013.0 |
| 20260507012634 | 78 | 264 | 5.2 | 12.2 | 0.00 | 0.00 | 0.00 | 34 | 1013.2 |
| 20260507011653 | 77 | 217 | 4.3 | 7.8 | 0.00 | 0.00 | 0.00 | 40 | 1013.1 |
| 20260507010628 | 77 | 203 | 6.1 | 7.8 | 0.00 | 0.00 | 0.00 | 41 | 1013.0 |
| 20260507005632 | 77 | 206 | 7.0 | 11.3 | 0.00 | 0.00 | 0.00 | 41 | 1013.0 |
| 20260507004628 | 77 | 201 | 7.8 | 13.9 | 0.00 | 0.00 | 0.00 | 42 | 1012.8 |
| 20260507003650 | 77 | 206 | 7.0 | 11.3 | 0.00 | 0.00 | 0.00 | 42 | 1012.7 |
| 20260507002621 | 77 | 204 | 7.8 | 10.4 | 0.00 | 0.00 | 0.00 | 42 | 1012.8 |
| 20260507001622 | 78 | 202 | 6.1 | 13.9 | 0.00 | 0.00 | 0.00 | 42 | 1012.8 |
| 20260507000638 | 78 | 196 | 6.1 | 9.6 | 0.00 | 0.00 | 0.00 | 42 | 1012.6 |
| 20260506235635 | 79 | 192 | 5.2 | 7.8 | 0.00 | 0.00 | 0.00 | 41 | 1012.8 |
| 20260506234632 | 79 | 201 | 7.8 | 12.2 | 0.00 | 0.00 | 0.00 | 41 | 1012.7 |
| 20260506233630 | 79 | 210 | 5.2 | 9.6 | 0.00 | 0.00 | 0.00 | 41 | 1012.8 |
| 20260506232632 | 79 | 203 | 7.8 | 9.6 | 0.00 | 0.00 | 0.00 | 41 | 1012.9 |
| 20260506231625 | 79 | 205 | 6.1 | 9.6 | 0.00 | 0.00 | 0.00 | 42 | 1013.0 |
| 20260506230641 | 80 | 212 | 8.7 | 13.0 | 0.00 | 0.00 | 0.00 | 39 | 1013.0 |
| 20260506225623 | 80 | 223 | 7.8 | 12.2 | 0.00 | 0.00 | 0.00 | 40 | 1013.0 |
| 20260506224644 | 79 | 206 | 8.7 | 11.3 | 0.00 | 0.00 | 0.00 | 40 | 1013.1 |
| 20260506223635 | 79 | 206 | 8.7 | 13.0 | 0.00 | 0.00 | 0.00 | 38 | 1013.2 |
| 20260506222633 | 79 | 205 | 8.7 | 13.0 | 0.00 | 0.00 | 0.00 | 37 | 1013.5 |
| 20260506221631 | 79 | 196 | 8.7 | 13.0 | 0.00 | 0.00 | 0.00 | 34 | 1013.6 |
| 20260506220632 | 80 | 220 | 8.7 | 13.0 | 0.00 | 0.00 | 0.00 | 35 | 1013.8 |
| 20260506215624 | 79 | 203 | 8.7 | 10.4 | 0.00 | 0.00 | 0.00 | 32 | 1013.9 |
| 20260506214627 | 80 | 218 | 6.1 | 8.7 | 0.00 | 0.00 | 0.00 | 33 | 1013.9 |
| 20260506213625 | 79 | 200 | 7.0 | 10.4 | 0.00 | 0.00 | 0.00 | 34 | 1013.9 |
| 20260506212624 | 79 | 203 | 9.6 | 14.8 | 0.00 | 0.00 | 0.00 | 33 | 1014.2 |
| 20260506211646 | 79 | 195 | 7.0 | 10.4 | 0.00 | 0.00 | 0.00 | 34 | 1014.1 |
| 20260506210655 | 79 | 202 | 10.4 | 13.9 | 0.00 | 0.00 | 0.00 | 34 | 1014.3 |
| 20260506205634 | 79 | 185 | 6.1 | 13.0 | 0.00 | 0.00 | 0.00 | 35 | 1014.4 |
| 20260506204631 | 79 | 204 | 7.0 | 12.2 | 0.00 | 0.00 | 0.00 | 36 | 1014.4 |
| 20260506203632 | 79 | 209 | 7.8 | 13.9 | 0.00 | 0.00 | 0.00 | 37 | 1014.5 |
| 20260506202629 | 79 | 213 | 7.0 | 9.6 | 0.00 | 0.00 | 0.00 | 37 | 1014.4 |
| 20260506201628 | 78 | 213 | 8.7 | 17.4 | 0.00 | 0.00 | 0.00 | 38 | 1014.6 |
| 20260506200626 | 77 | 211 | 12.2 | 16.5 | 0.00 | 0.00 | 0.00 | 38 | 1014.7 |
| 20260506195618 | 77 | 219 | 9.6 | 14.8 | 0.00 | 0.00 | 0.00 | 39 | 1014.9 |
| 20260506194658 | 76 | 213 | 10.4 | 14.8 | 0.00 | 0.00 | 0.00 | 38 | 1014.9 |
| 20260506193638 | 76 | 217 | 12.2 | 16.5 | 0.00 | 0.00 | 0.00 | 38 | 1014.8 |
| 20260506192633 | 76 | 205 | 10.4 | 15.6 | 0.00 | 0.00 | 0.00 | 40 | 1014.9 |
| 20260506191632 | 77 | 200 | 7.8 | 14.8 | 0.00 | 0.00 | 0.00 | 41 | 1014.8 |
| 20260506190631 | 75 | 200 | 8.7 | 12.2 | 0.00 | 0.00 | 0.00 | 40 | 1015.0 |
| 20260506185626 | 74 | 195 | 11.3 | 18.2 | 0.00 | 0.00 | 0.00 | 42 | 1014.8 |
| 20260506184708 | 74 | 195 | 7.8 | 12.2 | 0.00 | 0.00 | 0.00 | 45 | 1015.0 |
| 20260506183626 | 73 | 196 | 9.6 | 15.6 | 0.00 | 0.00 | 0.00 | 46 | 1014.9 |
| 20260506182623 | 73 | 213 | 11.3 | 17.4 | 0.00 | 0.00 | 0.00 | 46 | 1015.1 |
| 20260506181656 | 72 | 199 | 5.2 | 7.8 | 0.00 | 0.00 | 0.00 | 48 | 1015.3 |
| 20260506180634 | 72 | 213 | 7.0 | 13.0 | 0.00 | 0.00 | 0.00 | 49 | 1015.3 |
| 20260506175634 | 71 | 196 | 9.6 | 13.9 | 0.00 | 0.00 | 0.00 | 49 | 1015.2 |
| 20260506174634 | 71 | 214 | 11.3 | 17.4 | 0.00 | 0.00 | 0.00 | 48 | 1015.3 |
| 20260506173627 | 70 | 190 | 6.1 | 11.3 | 0.00 | 0.00 | 0.00 | 49 | 1015.2 |
| 20260506172626 | 70 | 193 | 9.6 | 11.3 | 0.00 | 0.00 | 0.00 | 49 | 1015.4 |
| 20260506171627 | 70 | 225 | 7.8 | 12.2 | 0.00 | 0.00 | 0.00 | 51 | 1015.7 |
| 20260506170626 | 69 | 195 | 6.1 | 9.6 | 0.00 | 0.00 | 0.00 | 53 | 1015.7 |
| 20260506165620 | 68 | 192 | 8.7 | 15.6 | 0.00 | 0.00 | 0.00 | 54 | 1015.8 |
| 20260506164658 | 68 | 201 | 7.0 | 11.3 | 0.00 | 0.00 | 0.00 | 55 | 1015.7 |
| 20260506163637 | 67 | 215 | 7.0 | 10.4 | 0.00 | 0.00 | 0.00 | 57 | 1015.9 |
| 20260506162636 | 67 | 217 | 11.3 | 15.6 | 0.00 | 0.00 | 0.00 | 56 | 1015.8 |
| 20260506161630 | 66 | 206 | 7.8 | 12.2 | 0.00 | 0.00 | 0.00 | 58 | 1015.8 |
| 20260506160631 | 65 | 206 | 13.9 | 16.5 | 0.00 | 0.00 | 0.00 | 60 | 1015.8 |
| 20260506155630 | 64 | 192 | 8.7 | 14.8 | 0.00 | 0.00 | 0.00 | 62 | 1015.6 |
| 20260506154627 | 64 | 194 | 7.8 | 11.3 | 0.00 | 0.00 | 0.00 | 62 | 1015.8 |
| 20260506153642 | 64 | 197 | 7.8 | 11.3 | 0.00 | 0.00 | 0.00 | 61 | 1015.7 |
| 20260506152624 | 64 | 198 | 7.8 | 11.3 | 0.00 | 0.00 | 0.00 | 62 | 1015.5 |
| 20260506151640 | 64 | 198 | 9.6 | 14.8 | 0.00 | 0.00 | 0.00 | 61 | 1015.5 |
| 20260506150638 | 63 | 201 | 8.7 | 13.0 | 0.00 | 0.00 | 0.00 | 63 | 1015.6 |
| 20260506145633 | 62 | 197 | 7.0 | 11.3 | 0.00 | 0.00 | 0.00 | 65 | 1015.4 |
| 20260506144635 | 62 | 199 | 8.7 | 10.4 | 0.00 | 0.00 | 0.00 | 66 | 1015.4 |
| 20260506143630 | 63 | 203 | 5.2 | 9.6 | 0.00 | 0.00 | 0.00 | 63 | 1015.4 |
| 20260506142632 | 65 | 193 | 7.0 | 8.7 | 0.00 | 0.00 | 0.00 | 54 | 1015.3 |
| 20260506141647 | 67 | 221 | 8.7 | 10.4 | 0.00 | 0.00 | 0.00 | 49 | 1015.2 |
| 20260506140641 | 67 | 246 | 4.3 | 11.3 | 0.00 | 0.00 | 0.00 | 46 | 1015.1 |
| 20260506135619 | 68 | 218 | 7.0 | 8.7 | 0.00 | 0.00 | 0.00 | 44 | 1015.1 |
| 20260506134639 | 68 | 247 | 4.3 | 6.1 | 0.00 | 0.00 | 0.00 | 43 | 1014.8 |
| 20260506133639 | 68 | 222 | 4.3 | 7.0 | 0.00 | 0.00 | 0.00 | 43 | 1014.7 |
| 20260506132632 | 67 | 235 | 4.3 | 8.7 | 0.00 | 0.00 | 0.00 | 44 | 1014.6 |
| 20260506131711 | 67 | 259 | 4.3 | 6.1 | 0.00 | 0.00 | 0.00 | 45 | 1014.5 |
| 20260506130631 | 66 | 234 | 6.1 | 9.6 | 0.00 | 0.00 | 0.00 | 45 | 1014.5 |
| 20260506125628 | 67 | 245 | 6.1 | 9.6 | 0.00 | 0.00 | 0.00 | 44 | 1014.2 |
| 20260506124622 | 67 | 253 | 7.8 | 10.4 | 0.00 | 0.00 | 0.00 | 44 | 1014.2 |
| 20260506123628 | 66 | 218 | 5.2 | 7.8 | 0.00 | 0.00 | 0.00 | 46 | 1014.2 |
| 20260506122623 | 66 | 225 | 5.2 | 8.7 | 0.00 | 0.00 | 0.00 | 46 | 1014.1 |
| 20260506121637 | 66 | 237 | 5.2 | 8.7 | 0.00 | 0.00 | 0.00 | 46 | 1014.1 |
| 20260506120655 | 67 | 236 | 5.2 | 7.8 | 0.00 | 0.00 | 0.00 | 45 | 1013.9 |
| 20260506115658 | 66 | 272 | 5.2 | 7.8 | 0.00 | 0.00 | 0.00 | 46 | 1013.9 |
| 20260506114633 | 66 | 232 | 6.1 | 8.7 | 0.00 | 0.00 | 0.00 | 48 | 1013.9 |
| 20260506113629 | 65 | 242 | 4.3 | 7.8 | 0.00 | 0.00 | 0.00 | 49 | 1013.5 |
| 20260506112626 | 65 | 256 | 3.5 | 5.2 | 0.00 | 0.00 | 0.00 | 49 | 1013.7 |
| 20260506111639 | 64 | 238 | 3.5 | 6.1 | 0.00 | 0.00 | 0.00 | 55 | 1013.7 |
| 20260506110647 | 60 | 266 | 1.7 | 2.6 | 0.00 | 0.00 | 0.00 | 64 | 1013.7 |